Regional Weather Roundup
Issued by NWS

Home | Current Version | Previous Version | Text Only | Print | Product List | Glossary Off
Versions: 1 2 3 4 5 6 7 8 9 10 11 12 13 14 15 16 17 18 19 20 21 22 23 24 25 26 27 28 29 30 31 32 33 34 35 36 37 38 39 40 41 42 43 44 45 46 47 48 49 50

000
ASUS43 KTOP 211208
RWRKS

WEATHER ROUNDUP FOR KANSAS
NATIONAL WEATHER SERVICE GOODLAND KS
700 AM CDT SUN SEP 21 2014

NOTE:  "FAIR" INDICATES FEW OR NO CLOUDS BELOW 12,000 FEET WITH NO
SIGNIFICANT WEATHER AND/OR OBSTRUCTIONS TO VISIBILITY.

KSZ001>006-013>018-027>032-041>047-211300-
NORTHWEST KANSAS

CITY           SKY/WX    TMP DP  RH WIND       PRES   REMARKS
GOODLAND       CLEAR     49  44  83 NW6       30.32R
6HR MIN TEMP:  48; 6HR MAX TEMP:  62;

HAYS           CLEAR     55  45  67 N6        30.23R
HILL CITY      PTCLDY    54  47  77 N5        30.25R
6HR MIN TEMP:  51; 6HR MAX TEMP:  67;

RUSSELL        CLEAR     56  50  80 N3        30.20R
6HR MIN TEMP:  56; 6HR MAX TEMP:  67;

$$

KSZ061>065-074>080-084>089-211300-
SOUTHWEST KANSAS

CITY           SKY/WX    TMP DP  RH WIND       PRES   REMARKS
DODGE CITY     CLEAR     59  50  72 NE12      30.21R
6HR MIN TEMP:  59; 6HR MAX TEMP:  72; 6HR PCP:  0.01;

ELKHART          N/A     62  56  81 N9          N/A
GARDEN CITY    CLEAR     59  47  64 NE15      30.23R
6HR MIN TEMP:  59; 6HR MAX TEMP:  67; 6HR PCP: TRACE;

GREAT BEND     CLEAR     57  52  82 N5        30.21R
LIBERAL        CLEAR     66  57  72 NE14      30.21R
PRATT          CLEAR     63  52  67 NE10      30.19R
$$

KSZ066>073-081>083-090>101-211300-
SOUTHEAST KANSAS

CITY           SKY/WX    TMP DP  RH WIND       PRES   REMARKS
CHANUTE        CLEAR     66  59  78 NE10      30.11R
6HR MIN TEMP:  66; 6HR MAX TEMP:  77; 6HR PCP: TRACE;

HUTCHINSON     CLEAR     63  56  78 NE7       30.16R
6HR MIN TEMP:  63; 6HR MAX TEMP:  75;

MEDICINE LODGE   N/A     70  56  61 NE17G28   30.12R
NEWTON         CLEAR     63  54  72 NE8       30.17S
PARSONS        PTCLDY    68  64  87 NE6       30.11R
6HR MIN TEMP:  68; 6HR MAX TEMP:  75; 6HR PCP:  0.03;

WICHITA INTL   PTCLDY    68  55  63 NE16      30.14R
6HR MIN TEMP:  68; 6HR MAX TEMP:  75;

WICHITA JABRA  MOCLDY    66  56  70 NE13      30.13R
6HR MIN TEMP:  65; 6HR MAX TEMP:  73;

WICHITA MCCONL PTCLDY    68  55  64 NE12      30.14R HAZE
WINFIELD       PTCLDY    70  63  78 NE14      30.12R
6HR MIN TEMP:  70; 6HR MAX TEMP:  75; 6HR PCP:  0.43;

$$

KSZ007>012-019>026-033>040-048>060-102>105-211300-
NORTHEAST KANSAS

CITY           SKY/WX    TMP DP  RH WIND       PRES   REMARKS
CONCORDIA      CLEAR     54  51  90 SW5       30.20R
6HR MIN TEMP:  54; 6HR MAX TEMP:  67;

EMPORIA        CLEAR     60  57  89 N5        30.14R
6HR MIN TEMP:  60; 6HR MAX TEMP:  68;

LAWRENCE       CLEAR     50  49  96 NW8       30.13R
6HR MIN TEMP:  50; 6HR MAX TEMP:  66;

MANHATTAN      CLEAR     53  52  96 CALM      30.16R
6HR MIN TEMP:  53; 6HR MAX TEMP:  71;

MARYSVILLE     CLEAR     52  50  93 NW5       30.17R
OLATHE IND     CLEAR     58  54  86 CALM      30.13R
6HR MIN TEMP:  56; 6HR MAX TEMP:  69;

OLATHE EXE     CLEAR     56  50  80 CALM      30.12R
6HR MIN TEMP:  56; 6HR MAX TEMP:  70;

SALINA         CLEAR     59  53  80 N7        30.18R
6HR MIN TEMP:  59; 6HR MAX TEMP:  71;

TOPEKA BILLARD CLEAR     57  55  93 CALM      30.14R
6HR MIN TEMP:  57; 6HR MAX TEMP:  70;

TOPEKA FORBES  CLEAR     55  53  93 N3        30.14R
6HR MIN TEMP:  54; 6HR MAX TEMP:  69;

$$


USA.gov is the U.S. government's official web portal to all federal, state and local government web resources and services.